This demonstration page uses our WeatherBlox Daily Observations layout. Learn more.

38.88101, -77.10428

Hourly Observations for November 9, 2016

Temp ( °F °C ) Dew Point ( °F °C ) Humidity (%) Winds ( mph kmh ) Pressure ( in mb ) Visibility ( mi km ) Precip ( " mm )
12:52 am 00:52 Cloudy 55 12.8 48 8.9 77 77 S 3 6 29.97 1015 10 16.09344 0 0
1:52 am 01:52 Cloudy 55 12.8 48 8.9 77 77 SW 5 7 29.94 1014 10 16.09344 0 0
2:52 am 02:52 Cloudy 55 12.8 48 8.9 77 77 S 5 7 29.94 1014 10 16.09344 0 0
3:52 am 03:52 Cloudy with Light Rain 56 13.3 49 9.4 77 77 S 7 11 29.91 1013 10 16.09344 0.001 0.001
4:52 am 04:52 Cloudy with Light Rain 56 13.3 49 9.4 77 77 Calm 29.91 1013 10 16.09344 0.001 0.001
5:52 am 05:52 Cloudy with Light Rain 54 12.2 52 11.1 93 93 SSW 7 11 29.91 1013 8 12.874752 0.03 0.762
6:23 am 06:23 Cloudy with Light Rain 55 12.8 51 10.6 87 87 SE 3 6 29.91 1013 10 16.09344 0.02 0.508
6:52 am 06:52 Cloudy with Light Rain 55 12.8 53 11.7 93 93 S 5 7 29.91 1013 7 11.265408 0.04 1.016
7:52 am 07:52 Cloudy with Light Rain 56 13.3 54 12.2 93 93 Calm 29.94 1014 5 8.04672 0.04 1.016
8:52 am 08:52 Cloudy with Light Rain 56 13.3 54 12.2 93 93 S 5 7 29.91 1013 5 8.04672 0.06 1.524
9:52 am 09:52 Cloudy 57 13.9 56 13.3 96 96 SW 5 7 29.91 1013 8 12.874752 0.001 0.001
10:14 am 10:14 Cloudy 57 14 55 13 94 94 W 7 11 29.91 1013 10 16.09344 0 0
10:52 am 10:52 Partly Cloudy 61 16.1 55 12.8 81 81 WSW 6 9 29.91 1013 10 16.09344 0 0
11:23 am 11:23 Mostly Cloudy 62 16.7 53 11.7 73 73 NW 12 19 29.88 1012 10 16.09344 0 0
11:52 am 11:52 Mostly Cloudy 62 16.7 52 11.1 70 70 NW 12 19 29.88 1012 10 16.09344 0 0
12:52 pm 12:52 Mostly Cloudy 65 18.3 51 10.6 61 61 NNW 12 19 29.85 1011 10 16.09344 0 0
1:52 pm 13:52 Mostly Cloudy 63 17.2 50 10 63 63 NNW 18 30 29.85 1011 10 16.09344 0 0
2:52 pm 14:52 Mostly Cloudy 60 15.6 51 10.6 72 72 NW 17 28 29.88 1012 10 16.09344 0.001 0.001
3:41 pm 15:41 Cloudy 58 14.4 52 11.1 81 81 NW 16 26 29.88 1012 10 16.09344 0.001 0.001
3:52 pm 15:52 Cloudy with Light Thunderstorms 57 13.9 53 11.7 87 87 NW 15 24 29.91 1013 10 16.09344 0.001 0.001
4:01 pm 16:01 Cloudy with Thunderstorms 57 13.9 52 11.1 83 83 NNW 16 26 29.91 1013 10 16.09344 0.001 0.001
4:04 pm 16:04 Cloudy with Nearby Thunderstorms 57 14 52 11 82 82 NW 17 28 29.91 1013 9 14.484096 0 0
4:20 pm 16:20 Cloudy with Light Rain 55 13 52 11 88 88 NNW 14 22 29.91 1013 7 11.265408 0 0
4:52 pm 16:52 Cloudy with Light Rain 56 13.3 53 11.7 90 90 NW 12 19 29.91 1013 10 16.09344 0.02 0.508
5:52 pm 17:52 Cloudy 56 13.3 52 11.1 87 87 NW 12 19 29.94 1014 10 16.09344 0.001 0.001
6:52 pm 18:52 Cloudy 56 13.3 51 10.6 84 84 NW 13 20 29.97 1015 10 16.09344 0 0
7:52 pm 19:52 Cloudy 57 13.9 46 7.8 67 67 NW 18 30 29.97 1015 10 16.09344 0 0
8:52 pm 20:52 Cloudy 56 13.3 44 6.7 65 65 NW 16 26 30 1016 10 16.09344 0 0
9:52 pm 21:52 Partly Cloudy 53 11.7 42 5.6 66 66 NNW 21 33 30.03 1017 10 16.09344 0 0
10:52 pm 22:52 Cloudy 52 11.1 41 5 66 66 NW 15 24 30.03 1017 10 16.09344 0 0
11:52 pm 23:52 Cloudy 51 10.6 40 4.4 66 66 NW 18 30 30.06 1018 10 16.09344 0 0

Powered by AerisWeather